FW3788 Weather Reports


time (UTC)temp
C
wind
direction
speed
KPH
gust
KPH
rain 1hr
cm
rain 24hr
cm
rain mn
cm
humidity
%
barometer
mb
20260506084518 5 251 0.0 0.0 0.00 0.00 0.00 90 1017.8
20260506084019 5 251 0.0 0.0 0.00 0.00 0.00 90 1017.9
20260506083620 5 251 0.0 0.0 0.00 0.00 0.00 90 1018.0
20260506083018 5 251 0.0 0.0 0.00 0.00 0.00 90 1018.1
20260506082517 5 251 0.0 0.0 0.00 0.00 0.00 89 1018.1
20260506082018 5 251 0.0 0.0 0.00 0.00 0.00 90 1018.1
20260506081519 5 251 0.0 0.0 0.00 0.00 0.00 90 1018.0
20260506081019 5 254 0.0 0.0 0.00 0.00 0.00 90 1018.0
20260506080518 5 254 0.0 0.0 0.00 0.00 0.00 89 1018.0
20260506073518 5 254 0.0 0.0 0.00 0.00 0.00 88 1017.6
20260506073018 5 254 0.0 0.0 0.00 0.00 0.00 88 1017.6
20260506072518 6 254 0.0 0.0 0.00 0.00 0.00 88 1017.4
20260506072019 6 254 0.0 0.0 0.00 0.00 0.00 88 1017.6
20260506071518 6 254 0.0 0.0 0.00 0.00 0.00 88 1017.4
20260506071018 6 254 0.0 0.0 0.00 0.00 0.00 88 1017.4
20260506070518 6 254 0.0 0.0 0.00 0.00 0.00 88 1017.2
20260506062019 6 254 0.0 0.0 0.00 0.00 0.00 87 1017.2
20260506061518 7 254 0.0 0.0 0.00 0.00 0.00 87 1017.1
20260506061019 6 254 0.0 0.0 0.00 0.00 0.00 86 1017.1
20260506060518 7 254 0.0 0.0 0.00 0.00 0.00 86 1017.1
20260506051018 7 255 0.0 0.0 0.00 0.00 0.00 84 1016.7
20260506050518 7 255 0.0 0.0 0.00 0.00 0.00 84 1016.7
20260506045018 7 296 0.0 0.0 0.00 0.00 0.00 82 1016.3
20260506044528 7 296 0.0 0.0 0.00 0.00 0.00 83 1016.3
20260506044018 8 296 0.0 0.0 0.00 0.00 0.00 82 1016.3
20260506043519 8 296 0.0 0.0 0.00 0.00 0.00 82 1016.2
20260506043019 8 296 0.0 0.0 0.00 0.00 0.00 80 1016.1
20260506042522 9 297 0.0 0.0 0.00 0.00 0.00 81 1016.1
20260506042019 9 297 0.0 0.0 0.00 0.00 0.00 80 1015.9
20260506041519 9 297 0.0 0.0 0.00 0.00 0.00 80 1015.9
20260506041018 10 297 0.0 0.0 0.00 0.00 0.00 81 1015.8
20260506040518 10 297 0.0 0.0 0.00 0.00 0.00 81 1015.8
20260506040018 10 297 0.0 0.0 0.00 0.00 0.00 81 1015.7
20260506035521 10 297 0.0 0.0 0.00 0.00 0.00 80 1015.6
20260506035018 10 297 0.0 0.0 0.00 0.00 0.00 79 1015.5
20260506034519 10 297 0.0 0.0 0.00 0.00 0.00 78 1015.5
20260506034018 10 297 0.0 0.0 0.00 0.00 0.00 78 1015.3
20260506033618 10 297 0.0 0.0 0.00 0.00 0.00 77 1015.2
20260506033028 10 297 0.0 0.0 0.00 0.00 0.00 76 1015.2
20260506032518 11 297 0.0 0.0 0.00 0.00 0.00 75 1015.1
20260506032019 11 297 0.0 0.0 0.00 0.00 0.00 74 1015.0
20260506031529 11 297 0.0 0.0 0.00 0.00 0.00 74 1014.9
20260506031019 11 297 0.0 0.0 0.00 0.00 0.00 73 1014.8
20260506030523 11 297 0.0 0.0 0.00 0.00 0.00 72 1014.7
20260506030041 11 297 0.0 0.0 0.00 0.00 0.00 72 1014.6
20260506025518 11 297 0.0 0.0 0.00 0.00 0.00 71 1014.6
20260506025022 11 297 0.0 0.0 0.00 0.00 0.00 71 1014.5
20260506024526 12 296 0.0 0.0 0.00 0.00 0.00 70 1014.5
20260506024018 12 296 0.0 0.0 0.00 0.00 0.00 69 1014.5
20260506023519 12 296 0.0 6.4 0.00 0.00 0.00 68 1014.5
20260506023019 12 296 0.0 6.4 0.00 0.00 0.00 67 1014.5
20260506022518 12 287 0.0 1.6 0.00 0.00 0.00 66 1014.4
20260506022019 13 289 0.0 3.2 0.00 0.00 0.00 65 1014.4
20260506021619 13 289 0.0 8.0 0.00 0.00 0.00 64 1014.4
20260506021019 13 297 1.6 8.0 0.00 0.00 0.00 64 1014.3
20260506020524 13 284 0.0 0.0 0.00 0.00 0.00 64 1014.3
20260506020019 13 284 0.0 0.0 0.00 0.00 0.00 64 1014.3
20260506015518 13 284 0.0 0.0 0.00 0.03 0.00 63 1014.3
20260506015019 13 284 0.0 0.0 0.00 0.03 0.00 63 1014.2
20260506014518 13 284 0.0 9.7 0.00 0.03 0.00 63 1014.2
20260506014018 13 283 1.6 9.7 0.00 0.03 0.00 63 1014.2
20260506013518 13 286 1.6 9.7 0.00 0.03 0.00 64 1014.2
20260506013019 13 293 0.0 9.7 0.00 0.03 0.00 63 1014.2
20260506012018 13 292 0.0 6.4 0.00 0.03 0.00 62 1014.3
20260506011529 13 289 0.0 8.0 0.00 0.03 0.00 62 1014.3
20260506011022 13 298 0.0 14.5 0.00 0.03 0.00 61 1014.3
20260506010518 13 307 1.6 14.5 0.00 0.03 0.00 61 1014.3
20260506010019 14 282 1.6 9.7 0.00 0.03 0.00 61 1014.4
20260506005519 14 339 0.0 11.3 0.00 0.13 0.00 58 1014.4
20260506005018 15 322 3.2 11.3 0.00 0.13 0.00 58 1014.3
20260506004533 15 343 0.0 6.4 0.00 0.13 0.00 59 1014.4
20260506004018 14 284 0.0 6.4 0.00 0.13 0.00 59 1014.4
20260506003519 14 301 0.0 14.5 0.00 0.13 0.00 60 1014.4
20260506003023 14 294 3.2 14.5 0.00 0.13 0.00 61 1014.3
20260506002518 14 276 0.0 11.3 0.00 0.13 0.00 59 1014.3
20260506002019 13 308 0.0 11.3 0.00 0.13 0.00 61 1014.3
20260506001522 13 322 3.2 11.3 0.00 0.13 0.00 60 1014.3
20260506001019 13 299 0.0 9.7 0.00 0.13 0.00 61 1014.3
20260506000519 13 303 1.6 9.7 0.00 0.13 0.00 61 1014.3
20260506000023 13 301 0.0 8.0 0.00 0.13 0.00 61 1014.3
20260505235519 13 328 3.2 9.7 0.00 0.13 0.00 63 1014.3
20260505235019 13 274 1.6 9.7 0.00 0.13 0.00 63 1014.3
20260505234519 13 329 1.6 9.7 0.00 0.13 0.00 64 1014.3
20260505234018 13 291 0.0 11.3 0.00 0.13 0.00 64 1014.4
20260505233521 13 266 1.6 11.3 0.00 0.13 0.00 64 1014.4
20260505233018 13 293 1.6 16.1 0.00 0.13 0.00 63 1014.4
20260505232519 13 332 1.6 16.1 0.00 0.13 0.00 62 1014.5
20260505232018 13 299 3.2 12.9 0.00 0.13 0.00 61 1014.5
20260505231525 13 287 0.0 14.5 0.00 0.13 0.00 62 1014.4
20260505231118 13 299 3.2 16.1 0.00 0.13 0.00 63 1014.3
20260505230519 13 314 4.8 17.7 0.00 0.13 0.00 62 1014.4
20260505230023 13 346 3.2 14.5 0.00 0.13 0.00 61 1014.3
20260505225518 13 333 4.8 14.5 0.00 0.13 0.00 62 1014.4
20260505225024 13 328 1.6 11.3 0.00 0.13 0.00 62 1014.3
20260505224519 13 303 1.6 11.3 0.00 0.13 0.00 62 1014.3
20260505224018 13 275 1.6 12.9 0.00 0.13 0.00 61 1014.5
20260505223520 13 322 6.4 16.1 0.00 0.13 0.00 60 1014.4
20260505223018 13 288 3.2 16.1 0.00 0.13 0.00 61 1014.4
20260505222018 14 326 4.8 14.5 0.00 0.13 0.00 58 1014.5
20260505221520 14 314 1.6 9.7 0.00 0.13 0.00 59 1014.5
20260505221019 13 266 0.0 11.3 0.00 0.13 0.00 60 1014.5
20260505220518 13 293 3.2 11.3 0.00 0.13 0.00 58 1014.6
20260505220018 13 320 0.0 4.8 0.00 0.13 0.00 60 1014.6
20260505215621 13 320 0.0 9.7 0.00 0.13 0.00 60 1014.6
20260505215022 13 319 1.6 9.7 0.00 0.13 0.00 60 1014.7
20260505214619 13 297 0.0 14.5 0.00 0.13 0.00 64 1014.6
20260505214017 13 293 1.6 14.5 0.00 0.13 0.00 62 1014.7
20260505213522 13 316 1.6 6.4 0.00 0.13 0.00 62 1014.8
20260505213019 12 305 0.0 9.7 0.00 0.13 0.00 61 1014.9
20260505212519 12 308 1.6 11.3 0.00 0.13 0.00 63 1014.9
20260505212020 12 281 0.0 11.3 0.00 0.13 0.00 64 1014.9
20260505211521 12 320 0.0 9.7 0.00 0.13 0.00 65 1015.0
20260505211019 12 319 0.0 9.7 0.00 0.13 0.00 64 1014.9
20260505210520 12 319 0.0 6.4 0.00 0.13 0.00 65 1014.9
20260505210018 12 322 0.0 6.4 0.00 0.13 0.00 65 1014.9
20260505205522 12 322 0.0 9.7 0.00 0.13 0.00 64 1015.0
20260505205017 12 322 4.8 9.7 0.00 0.13 0.00 65 1015.0
20260505204518 12 311 0.0 6.4 0.00 0.13 0.00 64 1015.0
20260505204020 12 326 0.0 9.7 0.00 0.13 0.00 66 1015.0
20260505203518 11 326 4.8 9.7 0.00 0.13 0.00 66 1014.9
20260505203026 12 292 0.0 9.7 0.00 0.13 0.00 65 1015.0
20260505202519 12 274 0.0 8.0 0.00 0.13 0.00 64 1015.0
20260505202019 12 209 0.0 0.0 0.00 0.13 0.00 64 1015.0
20260505201518 12 209 0.0 4.8 0.00 0.13 0.00 63 1014.9
20260505201019 12 208 0.0 4.8 0.00 0.13 0.00 64 1014.9
20260505200518 12 258 0.0 0.0 0.00 0.13 0.00 66 1014.9
20260505200019 11 257 0.0 0.0 0.00 0.13 0.00 66 1014.9
20260505195521 11 258 0.0 0.0 0.00 0.13 0.00 66 1014.9
20260505195018 11 258 0.0 0.0 0.00 0.13 0.00 66 1014.9
20260505194522 11 258 0.0 0.0 0.00 0.13 0.00 66 1015.0
20260505194018 11 258 0.0 0.0 0.00 0.13 0.00 68 1015.0
20260505193522 11 292 0.0 0.0 0.00 0.13 0.00 68 1015.0
20260505193130 11 292 0.0 0.0 0.00 0.13 0.00 67 1015.0
20260505192619 11 292 0.0 0.0 0.00 0.13 0.00 68 1015.0
20260505192018 11 292 0.0 0.0 0.00 0.13 0.00 66 1015.0
20260505191519 11 292 0.0 0.0 0.00 0.13 0.00 66 1014.9
20260505191018 11 292 0.0 4.8 0.00 0.13 0.00 65 1014.8
20260505190518 11 292 0.0 4.8 0.00 0.13 0.00 66 1014.8
20260505190032 11 290 0.0 0.0 0.00 0.13 0.00 66 1014.8
20260505185519 11 290 0.0 0.0 0.00 0.13 0.00 66 1014.7
20260505185019 11 290 0.0 0.0 0.00 0.13 0.00 67 1014.7
20260505184524 11 301 0.0 3.2 0.00 0.13 0.00 67 1014.8
20260505183519 11 301 0.0 6.4 0.00 0.13 0.00 67 1014.9
20260505183022 10 299 0.0 4.8 0.00 0.13 0.00 66 1014.8
20260505182518 10 299 0.0 3.2 0.00 0.13 0.00 67 1014.8
20260505182018 10 301 0.0 12.9 0.00 0.13 0.00 67 1014.7
20260505181520 10 300 3.2 12.9 0.00 0.13 0.00 66 1014.8
20260505181019 11 288 4.8 11.3 0.00 0.13 0.00 64 1014.7
20260505180519 11 289 0.0 8.0 0.00 0.13 0.00 64 1014.6
20260505180026 11 291 0.0 9.7 0.00 0.13 0.00 63 1014.6
20260505175518 11 297 1.6 9.7 0.00 0.13 0.00 62 1014.5
20260505175018 11 288 1.6 9.7 0.00 0.13 0.00 62 1014.4
20260505174518 11 190 0.0 0.0 0.00 0.13 0.00 61 1014.3
20260505174019 11 190 0.0 0.0 0.00 0.13 0.00 59 1014.3
20260505173522 12 190 0.0 0.0 0.00 0.13 0.00 58 1014.2
20260505173019 12 190 0.0 6.4 0.00 0.13 0.00 59 1014.1
20260505172519 12 190 0.0 6.4 0.00 0.13 0.00 60 1014.1
20260505172019 11 190 0.0 6.4 0.00 0.13 0.00 64 1014.0
20260505171519 11 293 0.0 6.4 0.00 0.13 0.00 67 1014.1
20260505171019 11 292 0.0 6.4 0.00 0.13 0.00 65 1014.1
20260505170518 11 254 0.0 0.0 0.00 0.13 0.00 68 1014.1
20260505170019 11 254 0.0 4.8 0.00 0.13 0.00 68 1014.1
20260505165518 10 254 0.0 4.8 0.00 0.13 0.00 69 1014.2
20260505165019 10 184 0.0 4.8 0.00 0.13 0.00 68 1014.2
20260505164522 10 184 0.0 4.8 0.00 0.13 0.00 71 1014.2
20260505164019 10 184 0.0 0.0 0.00 0.13 0.00 69 1014.1
20260505163519 10 184 0.0 12.9 0.00 0.13 0.00 69 1014.0
20260505163019 10 184 3.2 12.9 0.00 0.13 0.00 70 1013.9
20260505162519 10 184 3.2 12.9 0.00 0.13 0.00 70 1013.9
20260505162019 10 178 0.0 0.0 0.00 0.13 0.00 74 1013.8
20260505161519 9 178 0.0 1.6 0.00 0.13 0.00 73 1013.9
20260505161020 9 178 0.0 8.0 0.00 0.13 0.00 77 1013.9
20260505160519 9 178 0.0 9.7 0.00 0.13 0.00 75 1013.8
20260505153023 8 199 0.0 3.2 0.00 0.13 0.00 85 1013.8
20260505152518 8 199 0.0 0.0 0.00 0.13 0.00 87 1013.7
20260505152024 8 199 0.0 0.0 0.00 0.13 0.00 88 1013.6
20260505151519 8 199 0.0 0.0 0.00 0.13 0.00 87 1013.6
20260505151018 7 199 0.0 0.0 0.00 0.13 0.00 88 1013.5
20260505150519 7 199 0.0 0.0 0.00 0.13 0.00 88 1013.5
20260505140518 6 198 0.0 0.0 0.00 0.13 0.00 91 1012.9
20260505124519 6 320 0.0 0.0 0.00 0.13 0.00 90 1013.0
20260505124020 6 320 0.0 0.0 0.00 0.13 0.00 90 1013.0
20260505123520 6 320 0.0 0.0 0.00 0.13 0.00 89 1013.0
20260505123020 6 320 0.0 0.0 0.00 0.13 0.00 89 1012.9
20260505122519 6 320 0.0 0.0 0.00 0.13 0.00 89 1012.9
20260505122022 6 320 0.0 0.0 0.00 0.13 0.00 89 1012.9
20260505121519 6 320 0.0 0.0 0.00 0.13 0.00 89 1013.0
20260505121019 6 320 0.0 0.0 0.00 0.13 0.00 89 1013.0
20260505120518 6 320 0.0 0.0 0.00 0.13 0.00 89 1013.0
20260505120033 6 320 0.0 0.0 0.00 0.13 0.00 88 1013.0
20260505115519 7 320 0.0 0.0 0.00 0.13 0.00 88 1012.9
20260505115019 7 320 0.0 0.0 0.00 0.13 0.00 88 1013.0
20260505114519 7 320 0.0 0.0 0.00 0.13 0.00 88 1012.9
20260505114019 7 320 0.0 0.0 0.00 0.13 0.00 88 1012.9
20260505113618 7 320 0.0 0.0 0.00 0.13 0.00 88 1012.8
20260505113018 7 320 0.0 0.0 0.00 0.13 0.00 88 1012.9
20260505112522 7 320 0.0 0.0 0.00 0.13 0.00 88 1012.9
20260505112019 7 320 0.0 0.0 0.00 0.13 0.00 88 1012.9
20260505111528 7 320 0.0 0.0 0.00 0.13 0.00 88 1013.0
20260505111022 7 320 0.0 0.0 0.00 0.13 0.00 88 1012.9
20260505110522 7 320 0.0 0.0 0.00 0.13 0.00 88 1012.9
20260505102019 7 320 0.0 0.0 0.00 0.13 0.00 87 1013.1
20260505101519 7 320 0.0 0.0 0.00 0.13 0.00 87 1013.1
20260505101019 7 320 0.0 0.0 0.00 0.13 0.00 87 1013.1
20260505100519 7 320 0.0 0.0 0.00 0.13 0.00 88 1013.1
20260505100027 7 320 0.0 0.0 0.00 0.13 0.00 88 1013.1
20260505095518 7 320 0.0 0.0 0.00 0.13 0.00 88 1013.2
20260505095018 7 320 0.0 0.0 0.00 0.13 0.00 87 1013.2
20260505094520 7 320 0.0 0.0 0.00 0.13 0.00 88 1013.2
20260505094019 7 320 0.0 0.0 0.00 0.13 0.00 88 1013.2
20260505093519 7 320 0.0 0.0 0.00 0.13 0.00 88 1013.2
20260505093019 7 320 0.0 0.0 0.00 0.13 0.00 88 1013.2
20260505092519 7 320 0.0 0.0 0.00 0.13 0.00 87 1013.2
20260505092019 7 320 0.0 0.0 0.00 0.13 0.00 86 1013.3
20260505091521 7 320 0.0 0.0 0.00 0.13 0.00 86 1013.2
20260505091019 7 320 0.0 0.0 0.00 0.13 0.00 86 1013.3
20260505090519 7 320 0.0 0.0 0.00 0.13 0.00 86 1013.2
20260505090019 7 320 0.0 0.0 0.00 0.13 0.00 85 1013.3
20260505085521 7 320 0.0 0.0 0.00 0.13 0.00 86 1013.3
20260505085020 7 320 0.0 0.0 0.00 0.13 0.00 85 1013.3